User: anonymous   Login
Location: Unspecified
(0.0000°N, 0.0000°E)
Time: 07:53:28
(UTC+00:00)
Language:

COSMOS 2481 - Orbit

View from above orbital plane
View from above orbital plane
View from above satellite
View from above satellite

Ground track
Ground track

The orbit data is extracted from the following two-line orbital elements,

1 38733U 12041A   17328.44051903 +.00000034 +00000-0 +17154-3 0  9997
2 38733 082.4773 224.4734 0019607 045.8812 314.3885 12.42372648241563
Epoch (UTC): 24 November 2017 10:34:20
Eccentricity: 0.0019607
inclination: 82.4773°
perigee height: 1481 km
apogee height: 1512 km
right ascension of ascending node: 224.4734°
argument of perigee: 45.8812°
revolutions per day: 12.42372648
mean anomaly at epoch: 314.3885°
orbit number at epoch: 24156

The dashed part of the orbit path shows where the satellite is in the earth's shadow,  

DLR